Flag for Netherlands Weather past 2 weeks in Rotterdam, Netherlands

Now
48 °F

Passing clouds.


Feels Like: 45 °F
Forecast: 45 / 58 °F
Wind: 7 mph from Northwest

Location: Rotterdam Zestienhoven Airport

Current Time: May 26, 2015 at 12:33:12 AM

Latest Report: May 25, 2015 at 11:55 PM


Visibility: N/A

Pressure: 30.07 "Hg

Humidity: 82%

Dew point: 43 °F

Location of RotterdamLocation

Historic Weather in Rotterdam — Graph

°F

Rotterdam temperature yesterday

Maximum temperature yesterday: 59 °F (at 11:25 AM)
Minimum temperature yesterday: 50 °F (at 9:25 PM)
Average temperature yesterday: 55 °F

Past Weeks' High & Low Weather Summary

 TemperatureHumidityPressure
High75 °F (May 11, 1:25 PM)100% (May 14, 2:25 AM)30.33 "Hg (May 14, 2:25 AM)
Low37 °F (May 24, 5:25 AM)37% (May 24, 4:25 PM)29.59 "Hg (May 18, 6:55 PM)
Average54 °F74%30.06 "Hg
* Reported May 10 10:25 PM — May 25 10:25 PM, Rotterdam, Weather by CustomWeather, © 2015

Note: Actual official high and low records may vary slightly from our data, if they occured in-between our weather recording intervals... More about our weather records

Advertising

Rotterdam weather history for previous 24 hours

 ConditionsComfort  
Time TempWeatherWind HumidityBarometerVisibility
10:25 PM
Mon, May 25
50 °FCool.7 mph76%30.07 "HgN/A
9:55 PM52 °FScattered clouds.10 mph72%30.07 "HgN/A
9:25 PM50 °FClear.9 mph76%30.07 "HgN/A
8:55 PM52 °FPassing clouds.8 mph72%30.04 "HgN/A
8:25 PM54 °FPassing clouds.9 mph67%30.04 "HgN/A
7:55 PM54 °FMostly cloudy.12 mph67%30.04 "HgN/A
7:25 PM54 °FMostly cloudy.9 mph67%30.04 "HgN/A
6:55 PM55 °FMore clouds than sun.10 mph63%30.04 "HgN/A
6:25 PM54 °FMore clouds than sun.12 mph67%30.04 "HgN/A
5:55 PM55 °FPartly sunny.13 mph63%30.04 "HgN/A
5:25 PM55 °FScattered clouds.12 mph63%30.04 "HgN/A
4:55 PM55 °FScattered clouds.12 mph63%30.04 "HgN/A
4:25 PM57 °FMostly cloudy.12 mph63%30.04 "HgN/A
3:55 PM57 °FMostly cloudy.12 mph63%30.04 "HgN/A
3:25 PM55 °FMostly cloudy.9 mph67%30.04 "HgN/A
2:55 PM57 °FMore clouds than sun.8 mph67%30.01 "HgN/A
2:25 PM57 °FScattered clouds.9 mph67%30.01 "HgN/A
1:55 PM59 °FBroken clouds.9 mph63%30.01 "HgN/A
1:25 PM59 °FClear.9 mph55%30.01 "HgN/A
12:55 PM59 °FBroken clouds.9 mph59%30.01 "HgN/A
12:25 PM57 °FPassing clouds.8 mph63%30.01 "HgN/A
11:55 AM57 °FPassing clouds.7 mph59%30.01 "HgN/A
11:25 AM59 °FClear.6 mph55%30.01 "HgN/A
10:55 AM57 °FClear.6 mph63%30.01 "HgN/A
10:25 AM55 °FScattered clouds.7 mph72%30.01 "HgN/A
9:55 AM55 °FBroken clouds.7 mph77%30.01 "HgN/A
9:25 AM55 °FPartly sunny.8 mph72%30.01 "HgN/A
8:55 AM55 °FMostly cloudy.7 mph67%30.01 "HgN/A
8:25 AM55 °FMore clouds than sun.7 mph67%30.01 "HgN/A
7:55 AM55 °FPartly sunny.6 mph77%30.01 "HgN/A
7:25 AM54 °FCloudy.3 mph77%30.01 "HgN/A
6:55 AM54 °FMostly cloudy.5 mph82%30.01 "HgN/A
6:25 AM54 °FPartly cloudy.3 mph94%30.01 "HgN/A
5:55 AM54 °FFog.5 mph94%30.01 "Hg2 mi
5:25 AM54 °FFog.5 mph100%30.01 "Hg3 mi
4:55 AM54 °FFog.5 mph100%30.01 "Hg2 mi
4:25 AM55 °FFog.2 mph94%30.01 "Hg2 mi
3:55 AM55 °FFog.5 mph94%30.01 "Hg2 mi
3:25 AM55 °FFog.5 mph94%30.01 "Hg1 mi
2:55 AM55 °FFog.7 mph94%30.01 "Hg2 mi
2:25 AM55 °FDrizzle. Low clouds.2 mph100%30.01 "Hg1 mi
1:55 AM55 °FPassing clouds.5 mph94%30.01 "Hg4 mi
1:25 AM55 °FDrizzle. Mostly cloudy.6 mph94%30.04 "Hg3 mi
12:55 AM55 °FOvercast.3 mph94%30.04 "HgN/A
12:25 AM55 °FOvercast.6 mph88%30.04 "HgN/A
Weather by CustomWeather, © 2015

See weather overviewHow to use our weather pages